Location: Ailly
(50.0793°N, 1.9944°E)
Time: 18:41:33
(UTC+00:00)

Cosmos 1932 - Pass Details

Date: 15 January 2026
Orbit: 920 x 1009 km, 65.0° (Epoch: 18 February)

Event Time Altitude Azimuth Distance (km) Brightness Sun altitude
Exits shadow 05:35:22 12° 222° (SW) 2,591 6.4 -20.1°
Maximum altitude 05:41:26 83° 310° (NW) 1,010 4.5 -19.2°
Drops below altitude 10° 05:48:01 10° 39° (NE) 2,790 7.2 -18.1°
Sets 05:50:39 0° 41° (NE) 3,747 8.0 -17.7°
